Regional Weather Roundup
Issued by NWS San Diego, CA

Home | Current Version | Previous Version | Text Only | Print | Product List | Glossary On
Versions: 1 2 3 4 5 6 7 8 9 10 11 12 13 14 15 16 17 18 19 20 21 22 23 24 25 26 27 28 29 30 31 32 33 34 35 36 37 38 39 40 41 42 43 44 45 46 47 48 49 50
000
ASUS46 KSGX 210311
RWRSGX

SAN DIEGO HOURLY WEATHER ROUNDUP
NATIONAL WEATHER SERVICE SAN DIEGO CA
700 PM PST TUE FEB 20 2018

NOTE: "FAIR" INDICATES FEW OR NO CLOUDS BELOW 12,000 FEET WITH NO
SIGNIFICANT WEATHER AND/OR OBSTRUCTIONS TO VISIBILITY.

CAZ042-043-060-061-PZZ750-775-210400-

GREATER SAN DIEGO AREA

CITY           SKY/WX    TMP DP  RH WIND       PRES   REMARKS
SAN DIEGO AP   CLEAR     54  32  43 CALM      30.16S
NATIONAL CITY    N/A     53  35  50 CALM      30.17R
CHULA VISTA      N/A     52  36  54 CALM      30.07R
IMPERIAL BEACH PTCLDY    54  32  43 N3        30.16R
BROWN FIELD    CLEAR     49  31  49 CALM      30.15R
MIRAMAR MCAS   CLEAR     47  28  47 CALM      30.14R
MONTGOMERY FLD CLEAR     51  29  42 CALM      30.15R
GILLESPIE FLD  CLEAR    N/A N/A N/A CALM      30.15R

$$

NORTH SAN DIEGO COUNTY

CITY           SKY/WX    TMP DP  RH WIND       PRES   REMARKS
CAMP PENDLETON CLEAR     42  25  50 CALM      30.13S
OCEANSIDE AP   CLEAR     44  25  47 CALM      30.13R
OCEANSIDE HBR    N/A     53  30  40 N2        30.15S
VISTA            N/A     47  30  52 CALM      30.13R
CARLSBAD       CLEAR     50  28  42 CALM      30.13R
DEL MAR          N/A     49  33  53 CALM      30.16S
LA JOLLA SCRIP   N/A     53  34  49 NW5       30.15R
FALLBROOK        N/A     47  29  49 CALM      30.12S
ESCONDIDO        N/A     50  28  42 CALM      30.16R
SAN MARCOS       N/A     49  29  46 CALM      30.18R
POWAY            N/A     46  28  49 CALM      30.16R

$$

EAST SAN DIEGO COUNTY

CITY           SKY/WX    TMP DP  RH WIND       PRES   REMARKS
RAMONA         CLEAR     42  23  46 CALM      30.12R
SANTEE LAKES     N/A     48  30  49 CALM      30.15R
LA MESA          N/A     49  30  48 CALM      30.10R
JAMUL            N/A     44  26  49 CALM      30.17R
DESCANSO N       N/A     30  20  66 W2        30.16R
CAMPO            N/A     40  20  44 CALM      30.07R

$$

ORANGE COUNTY AND THE LOS ANGELES BASIN

CITY           SKY/WX    TMP DP  RH WIND       PRES   REMARKS
JOHN WAYNE AP  CLEAR     53  26  35 CALM      30.13R
LAGUNA BEACH     N/A     48  27  44 CALM      30.08S
LAKE FOREST FR   N/A     46  15  28 W1        30.03R
HUNTINGTON BCH   N/A     53  30  41 NW2       30.14R
LOS ALAMITOS   CLEAR     51  23  33 NW7       30.12R
FULLERTON      CLEAR     53  23  31 VRB6      30.12R
LONG BEACH     CLEAR     55  26  32 NW10      30.13R
L.A. AP        CLEAR     54  30  40 W15       30.13R
L.A. DOWNTOWN  CLEAR     52  28  39 VRB3      30.12R

$$

THE INLAND EMPIRE

CITY           SKY/WX    TMP DP  RH WIND       PRES   REMARKS
CORONA         CLEAR     52  12  20 SW7       30.11
CHINO          CLEAR     50  21  32 W9        30.12R
ONTARIO        CLEAR     49  19  30 W12       30.11R
SAN BERNARDINO CLEAR     50  12  22 SW10      30.10R
RIVERSIDE AP   CLEAR     50  15  24 W7        30.10R
MORENO VALLEY    N/A     47  24  40 CALM      28.20R
MARCH ARB      CLEAR     42  13  30 N3        30.08R
HORSETHIEF CYN   N/A     46  10  22 CALM      30.13R
PERRIS           N/A     48  23  37 CALM      30.03R
HEMET EAST       N/A     43  13  28 CALM      30.20R
FRENCH VALLEY  FAIR      45  18  33 S7        30.11R
TEMECULA         N/A     48  28  45 S3        30.17R

$$

SAN BERNARDINO AND RIVERSIDE COUNTY MOUNTAINS

CITY           SKY/WX    TMP DP  RH WIND       PRES   REMARKS
BIG BEAR AP      N/A     25   1  36 CALM      29.99S

$$

SOUTHERN DESERT INCLUDING THE COACHELLA VALLEY

CITY           SKY/WX    TMP DP  RH WIND       PRES   REMARKS
PALM SPRINGS   PTCLDY    54   9  16 CALM      30.12R
THOUSAND PALMS   N/A     52  11  19 W3        30.08R
PALM DESERT      N/A     55  16  22 CALM        N/A
THERMAL        CLEAR     48  15  26 E7        30.10R
BLYTHE         CLEAR     51  -1  11 W6        30.11R
IMPERIAL AP    PTCLDY    51  13  21 W5        30.11R
EL CENTRO NAS  PTCLDY    51   2  13 NW5       30.13R
YUMA AZ        CLEAR     54   4  13 N7        30.10R
MEXICALI       CLEAR     50  10  20 S3        30.11S

$$

UPPER DESERT

CITY           SKY/WX    TMP DP  RH WIND       PRES   REMARKS
VICTORVILLE AP CLEAR     39  -8  13 CALM      30.07S
HESPERIA         N/A     37   1  22 CALM      30.22S
APPLE VALLEY     N/A     36   1  22 SE1       30.21R
PALMDALE       CLEAR     42   0  17 NE5       30.09R
LANCASTER      CLEAR     39  13  34 W15       30.10R WCI  31
EDWARDS AFB    CLEAR     42  -3  14 CALM      30.07R
DAGGETT        CLEAR     39   1  20 E5        30.10R
29 PALMS N     PTCLDY    43  -2  15 CALM      30.17R
NEEDLES        CLEAR     50  -1  12 NW7       30.11R

$$

REGIONAL REPORTS

CITY           SKY/WX    TMP DP  RH WIND       PRES   REMARKS
SANTA BARBARA  CLEAR     49  27  42 N5        30.13R
SANDBERG       CLEAR     28  15  58 N15       30.06R WCI  16
LAS VEGAS NV   PTCLDY    45   1  16 E6        30.11R
PHOENIX AZ     CLEAR     53  16  23 SW3       30.05S
TIJUANA        CLEAR     50  30  46 CALM      30.17R
ENSENADA NW      N/A     51  32  47 CALM      30.09R

$$

OFFSHORE ISLANDS

CITY           SKY/WX    TMP DP  RH WIND       PRES   REMARKS
CATALINA ARPT  CLEAR     45  22  40 W8        30.12R
SAN NICOLAS IS CLEAR     49  17  28 NW17      30.15R

$$

MARINE AND OFFSHORE BUOY REPORTS

STATION/POSITION SKY/WX   TEMP    WIND        PRES    VSBY  SWELL
                          AIR SEA DIR/SP/G                  HT/PER/DIR
                          (F)     (DEG/KT/KT) (MB)    (MI)  (FT/S/D)
TANNER BANKS               54 59              1021.1R
S CLEMENTE BASIN           54 61  270/  6/ 10 1020.8R         5/260/14
SAN NICOLAS IS.               57                N/A           5/300/12
SO. S. ROSA ISLA           52 57  310/ 21/ 25 1021.2R         7/320/10
W. S. BARBARA CH           52 57  320/ 21/ 25 1021.2R         7/310/11
M. S. BARBARA CH           53 56  290/ 19/ 23 1021.4R         2/260/ 8
S. MONICA BASIN               60  310/ 10/ 14 1020.2R         3/250/11
S PEDRO CHANNEL               60                N/A           2/280/13
CMP PENDLETON NS              59                N/A           2/260/11
OCEANSIDE OFFSHR              60                N/A           2/240/12
TORREY PINES OTR              60                N/A           2/220/14
SAN DIEGO BAY                 65              1021.5R
POINT LOMA SOUTH              60                N/A           3/260/14

$$




USA.gov is the U.S. government's official web portal to all federal, state and local government web resources and services.